Showing default

KINEIS-5E, 62083

Orbit data source: Space-Track

KINEIS-5E, 62083 is a French payload satellite in SSO that was launched on Mon, 25 Nov 2024 UTC via an ELECTRON launch vehicle from the Rocket Lab Launch Complex (RLLC). Payload-class satellites include a variety of spacecraft equipped with specific instruments for various scientific and technological missions. These include communications satellites like Starlink; space stations such as the ISS; scientific satellites like the Hubble; Earth observation satellites from companies like Planet Labs, Umbra, and HawkEye 360; GPS; miniature CubeSats for education and research; and military/defense satellites.

Loading next visibility...
Identifier
62083, 2024-219C
Orbit
SSO
Country
Flag of FRFR
Related business
Manufacturer
KINEIS
Mission
Operational Commercial Communications
Bus & Motor
CUBESAT 16U, Unknown motor
Mass
28 kg wet, 28 kg dry
Launch date (UTC)
2024-11-25 (9 months ago)
Launch vehicle
ELECTRON
Launch site
Rocket Lab Launch Complex (RLLC)
Object type
Payload
Rocket body
Debris
Shape & HBR
Box + 2 Pan + 1 Ant, 0.8 m
Radar Cross Section
0.229 m², Medium (>0.1 m² and < 1m²)

Expand to show TLE details & history
Last TLE update: 17 hours ago

TLE from 17 hours ago
0 KINEIS-5E
1 62083U 24219C   25242.30469899  .00001248  00000-0  20532-3 0  9990
2 62083  97.9790  42.3258 0001245 116.1642 243.9694 14.72275412 40960
Epoch: 2025-08-30T07:18Z
TLE epoch observation values (Epoch: 2025-08-30T07:18:45.992Z)
Latitude
-0°
Longitude
-46.10674°
Altitude
657.206 km
Speed
7.529 km/s
True Right ascension
02h 49m 18s
True Declination
0° 00' 00"
Sunlit
Object was in full shadow at epoch
Visualization orbit readout
Latitude
Unknown
Longitude
Unknown
Altitude
Unknown
Speed
Unknown
Apparent Right ascension
Unknown
Apparent Declination
Unknown
Sunlit
N/A
Visualization observer readout
Local Sidereal Time
15:40:39
Azimuth
Unknown
Elevation
Unknown
Doppler factor
Unknown
Orbital elements
Apogee altitude
651.743 km
Perigee altitude
649.993 km
Semi-major axis
7,029.005 km
Eccentricity
0.00012
Inclination
97.979°
RAAN
42.3258°
Arg. of periapsis
116.1642°
True anomaly
243.95658°
Mean anomaly
243.9694°
Eccentric anomaly
243.96299°
Mean motion
3.68301 °/min
Orbital period
97.75 mins
BSTAR
0.00020532
Loading maneuver chart data...
Computing Atmospheric mass density...
Loading historical data...
Loading historical data...
Loading historical data...
Loading historical data...
Loading historical data...
Loading historical data...
Loading historical data...

Documentation

Showing up to 5 results
|